Weather History for KMRF - October, 2011

Change the Weather History Date:

Thursday, October 20, 2011

  Actual Average Record
Temperature  
Mean Temperature 60 °F -  
Max Temperature 82 °F 70 °F 84 °F (2001)
Min Temperature 37 °F 42 °F 26 °F (1999)
Degree Days  
Heating Degree Days 6    
Growing Degree Days 10 (Base 50)    
Moisture  
Dew Point 23 °F    
Average Humidity 30    
Maximum Humidity 49    
Minimum Humidity 14    
Precipitation  
Precipitation 0.00 in - - ()
Sea Level Pressure  
Sea Level Pressure 30.16 in    
Wind  
Wind Speed 7 mph (NNW)    
Max Wind Speed 23 mph    
Max Gust Speed 34 mph    
Visibility 10 miles    
Events      
Averages and records for this station are not official NWS values.
T = Trace of Precipitation, MM = Missing Value Source: NWS Daily Summary

Daily Weather History Graph

Daily Weather History Graph

Search for Another Location

Airport or City:

Trip Planner

Search our weather history database for the weather conditions in past years. The results will help you decide how hot, cold, wet, or windy it might be!

Date:

Astronomy

Oct. 20, 2011 Rise Set
Actual Time 8:01 AM CDT 7:19 PM CDT
Civil Twilight 7:37 AM CDT 7:44 PM CDT
Nautical Twilight 7:09 AM CDT 8:12 PM CDT
Astronomical Twilight 6:41 AM CDT 8:39 PM CDT
Moon 1:18 AM CDT (10/20) 3:03 PM CDT (10/20)
Length of Visible Light 12h 07m
Length of Day
11h 18m
Last Quarter, 44% of the Moon is Illuminated
Oct 20
Last Quarter
Oct 26
New
Nov 2
First Quarter
Nov 10
Full
Nov 18
Last Quarter

Hourly Weather History & Observations

Time (CDT) Temp. Windchill Dew Point Humidity Pressure Visibility Wind Dir Wind Speed Gust Speed Precip Events Conditions
12:15 AM 39.2 °F 37.0 °F 14.0 °F 36% 30.16 in 10.0 mi North 3.5 mph - N/A   Clear
12:35 AM 42.8 °F 41.1 °F 17.6 °F 36% 30.16 in 10.0 mi NNE 3.5 mph - N/A   Clear
12:55 AM 42.8 °F 40.1 °F 15.8 °F 34% 30.16 in 10.0 mi NNE 4.6 mph - N/A   Clear
1:15 AM 42.8 °F 40.1 °F 17.6 °F 36% 30.15 in 10.0 mi NNE 4.6 mph - N/A   Clear
1:35 AM 39.2 °F 35.9 °F 15.8 °F 39% 30.15 in 10.0 mi NNE 4.6 mph - N/A   Clear
1:55 AM 37.4 °F 33.8 °F 15.8 °F 41% 30.15 in 10.0 mi NNE 4.6 mph - N/A   Clear
2:15 AM 39.2 °F 37.0 °F 17.6 °F 42% 30.15 in 10.0 mi NNE 3.5 mph - N/A   Clear
2:35 AM 39.2 °F 34.2 °F 17.6 °F 42% 30.15 in 10.0 mi NNE 6.9 mph - N/A   Clear
2:55 AM 39.2 °F 35.0 °F 17.6 °F 42% 30.15 in 10.0 mi NNE 5.8 mph - N/A   Clear
3:15 AM 39.2 °F 34.2 °F 19.4 °F 45% 30.14 in 10.0 mi NNE 6.9 mph - N/A   Clear
3:35 AM 41.0 °F 36.4 °F 17.6 °F 39% 30.14 in 10.0 mi NNE 6.9 mph - N/A   Clear
3:55 AM 42.8 °F 38.0 °F 19.4 °F 39% 30.14 in 10.0 mi NNE 8.1 mph - N/A   Clear
4:15 AM 42.8 °F 37.5 °F 19.4 °F 39% 30.13 in 10.0 mi NE 9.2 mph - N/A   Clear
4:35 AM 39.2 °F 34.2 °F 17.6 °F 42% 30.13 in 10.0 mi NNE 6.9 mph - N/A   Clear
4:55 AM 39.2 °F 35.9 °F 17.6 °F 42% 30.13 in 10.0 mi NNW 4.6 mph - N/A   Clear
5:35 AM 39.2 °F 34.2 °F 19.4 °F 45% 30.13 in 10.0 mi North 6.9 mph - N/A   Clear
5:55 AM 39.2 °F 35.0 °F 19.4 °F 45% 30.14 in 10.0 mi North 5.8 mph - N/A   Clear
6:15 AM 39.2 °F 34.2 °F 21.2 °F 49% 30.14 in 10.0 mi NNE 6.9 mph - N/A   Clear
6:35 AM 39.2 °F 33.6 °F 19.4 °F 45% 30.14 in 10.0 mi North 8.1 mph - N/A   Clear
6:55 AM 37.4 °F 32.1 °F 17.6 °F 45% 30.14 in 10.0 mi NNE 6.9 mph - N/A   Clear
7:15 AM 37.4 °F 32.1 °F 19.4 °F 48% 30.15 in 10.0 mi North 6.9 mph - N/A   Clear
7:35 AM 37.4 °F 32.8 °F 19.4 °F 48% 30.15 in 10.0 mi NNE 5.8 mph - N/A   Clear
7:55 AM 37.4 °F 34.9 °F 19.4 °F 48% 30.16 in 10.0 mi North 3.5 mph - N/A   Clear
8:15 AM 39.2 °F 35.0 °F 19.4 °F 45% 30.16 in 10.0 mi NNW 5.8 mph - N/A   Clear
8:35 AM 41.0 °F 38.0 °F 19.4 °F 42% 30.17 in 10.0 mi North 4.6 mph - N/A   Clear
8:55 AM 46.4 °F 43.5 °F 23.0 °F 40% 30.19 in 10.0 mi North 5.8 mph - N/A   Clear
9:15 AM 53.6 °F - 24.8 °F 33% 30.19 in 10.0 mi Calm Calm - N/A   Clear
9:35 AM 55.4 °F - 26.6 °F 33% 30.20 in 10.0 mi Calm Calm - N/A   Clear
9:55 AM 57.2 °F - 26.6 °F 31% 30.21 in 10.0 mi Calm Calm - N/A   Clear
10:15 AM 60.8 °F - 26.6 °F 27% 30.21 in 10.0 mi Calm Calm - N/A   Clear
10:35 AM 64.4 °F - 26.6 °F 24% 30.21 in 10.0 mi SSE 5.8 mph - N/A   Clear
10:55 AM 64.4 °F - 28.4 °F 26% 30.21 in 10.0 mi South 5.8 mph - N/A   Clear
11:15 AM 66.2 °F - 28.4 °F 24% 30.21 in 10.0 mi South 8.1 mph - N/A   Clear
11:55 AM 71.6 °F - 30.2 °F 22% 30.20 in 10.0 mi South 6.9 mph - N/A   Clear
12:15 PM 73.4 °F - 30.2 °F 20% 30.20 in 10.0 mi WNW 15.0 mph 18.4 mph N/A   Clear
12:35 PM 78.8 °F - 30.2 °F 17% 30.19 in 10.0 mi West 17.3 mph 21.9 mph N/A   Clear
12:55 PM 78.8 °F - 30.2 °F 17% 30.18 in 10.0 mi West 18.4 mph 26.5 mph N/A   Clear
1:15 PM 80.6 °F - 30.2 °F 16% 30.17 in 10.0 mi West 20.7 mph 26.5 mph N/A   Clear
1:55 PM 80.6 °F - 28.4 °F 15% 30.16 in 10.0 mi WNW 11.5 mph 19.6 mph N/A   Clear
2:15 PM 82.4 °F - 28.4 °F 14% 30.15 in 10.0 mi WNW 16.1 mph 25.3 mph N/A   Clear
2:35 PM 82.4 °F - 28.4 °F 14% 30.14 in 10.0 mi WNW 23.0 mph 31.1 mph N/A   Clear
2:55 PM 82.4 °F - 28.4 °F 14% 30.14 in 10.0 mi NW 18.4 mph 27.6 mph N/A   Clear
3:35 PM 82.4 °F - 28.4 °F 14% 30.14 in 10.0 mi West 19.6 mph 31.1 mph N/A   Clear
3:55 PM 80.6 °F - 28.4 °F 15% 30.13 in 10.0 mi West 23.0 mph 26.5 mph N/A   Clear
4:15 PM 82.4 °F - 28.4 °F 14% 30.13 in 10.0 mi West 21.9 mph 29.9 mph N/A   Clear
4:35 PM 80.6 °F - 28.4 °F 15% 30.13 in 10.0 mi West 17.3 mph 34.5 mph N/A   Clear
4:55 PM 80.6 °F - 28.4 °F 15% 30.13 in 10.0 mi West 23.0 mph 28.8 mph N/A   Clear
5:35 PM 80.6 °F - 28.4 °F 15% 30.13 in 10.0 mi West 17.3 mph 26.5 mph N/A   Clear
5:55 PM 80.6 °F - 28.4 °F 15% 30.13 in 10.0 mi West 13.8 mph - N/A   Clear
6:15 PM 80.6 °F - 26.6 °F 14% 30.13 in 10.0 mi WNW 15.0 mph - N/A   Clear
6:35 PM 78.8 °F - 26.6 °F 15% 30.13 in 10.0 mi West 16.1 mph - N/A   Clear
6:55 PM 78.8 °F - 26.6 °F 15% 30.14 in 10.0 mi West 11.5 mph - N/A   Clear
7:15 PM 75.2 °F - 26.6 °F 17% 30.14 in 10.0 mi West 10.4 mph - N/A   Clear
7:35 PM 69.8 °F - 24.8 °F 18% 30.15 in 10.0 mi West 10.4 mph - N/A   Clear
7:55 PM 66.2 °F - 24.8 °F 21% 30.16 in 10.0 mi West 6.9 mph - N/A   Clear
8:15 PM 66.2 °F - 24.8 °F 21% 30.16 in 10.0 mi WNW 8.1 mph - N/A   Clear
8:35 PM 64.4 °F - 24.8 °F 22% 30.17 in 10.0 mi WNW 6.9 mph - N/A   Clear
8:55 PM 60.8 °F - 23.0 °F 23% 30.17 in 10.0 mi WNW 9.2 mph - N/A   Clear
9:35 PM 59.0 °F - 24.8 °F 27% 30.18 in 10.0 mi NNW 11.5 mph - N/A   Clear
9:55 PM 59.0 °F - 23.0 °F 25% 30.19 in 10.0 mi NNW 11.5 mph - N/A   Clear
10:15 PM 57.2 °F - 23.0 °F 27% 30.19 in 10.0 mi NNW 9.2 mph - N/A   Clear
10:35 PM 55.4 °F - 23.0 °F 29% 30.19 in 10.0 mi Calm Calm - N/A   Clear
10:55 PM 55.4 °F - 23.0 °F 29% 30.20 in 10.0 mi NNE 3.5 mph - N/A   Clear
11:15 PM 55.4 °F - 24.8 °F 31% 30.20 in 10.0 mi NW 9.2 mph - N/A   Clear
11:35 PM 53.6 °F - 23.0 °F 30% 30.19 in 10.0 mi NW 9.2 mph - N/A   Clear
11:55 PM 55.4 °F - 24.8 °F 31% 30.18 in 10.0 mi NNW 9.2 mph - N/A   Clear